FREGAT R/B, 45609

Orbit data source: Space-Track

FREGAT R/B, 45609 is space debris originally from a launch on Fri, 22 May 2020 UTC launched from the Plesetsk Missile And Space Complex (PKMTR). Debris objects in space refer to the collection of defunct objects orbiting the Earth. Examples of debris include non-operational satellites, rocket bodies, and fragments generated from explosions, collisions, or faulty payload assembly.

Loading next visibility...
Identifier
45609, 2020-031B
Orbit
Molniya
Country
Flag of CISCIS
Related business
Manufacturer
Lavochkin
Mission
Spacecraft
Bus & Motor
FREGAT, Unknown motor
Mass
1,000 kg wet, 1,000 kg dry
Launch date (UTC)
2020-05-22 (6 years ago)
Launch vehicle
Unknown
Launch site
Plesetsk Missile And Space Complex (PKMTR)
Object type
Payload
Rocket body
Debris
Shape & HBR
Cyl, 1.7 m
Radar Cross Section
8.354 m², Large (>1 m²)

Expand to show TLE details & history
Last TLE update: 3 days ago

TLE from 3 days ago
0 FREGAT R/B
1 45609U 20031B   26032.98513822 -.00000899  00000-0  00000+0 0  9997
2 45609  63.5295  81.0900 7115484 258.1732  20.8232  2.01389944 41936
Epoch: 2026-02-01T23:38Z
TLE epoch observation values (Epoch: 2026-02-01T23:38:35.942Z)
Latitude
0.00012°
Longitude
-45.67552°
Altitude
8,929.676 km
Speed
6.086 km/s
True Right ascension
05h 24m 38s
True Declination
0° 00' 00"
Sunlit
Object was in daylight at epoch
Visualization orbit readout
Latitude
Unknown
Longitude
Unknown
Altitude
Unknown
Speed
Unknown
Apparent Right ascension
Unknown
Apparent Declination
Unknown
Sunlit
N/A
Visualization observer readout
Local Sidereal Time
00:34:41
Azimuth
Unknown
Elevation
Unknown
Doppler factor
Unknown
Orbital elements
Apogee altitude
38,955.118 km
Perigee altitude
1,261.992 km
Semi-major axis
26,486.692 km
Eccentricity
0.71155
Inclination
63.5295°
RAAN
81.09°
Arg. of periapsis
258.1732°
True anomaly
101.87734°
Mean anomaly
20.8232°
Eccentric anomaly
53.6652°
Mean motion
0.5035 °/min
Orbital period
714.99 mins
BSTAR
0
Loading maneuver chart data...
Computing Atmospheric mass density...
Loading historical data...
Loading historical data...
Loading historical data...
Loading historical data...
Loading historical data...
Loading historical data...
Loading historical data...
Other satellites on launch #31 in the year 2020 (2020-05-22 UTC)

Documentation

Showing up to 5 results
|